Flag for Germany Weather past 2 weeks in Ludwigshafen, Rhineland-Palatinate, Germany

Now
57 °F

Passing clouds.


Feels Like: 55 °F
Forecast: 51 / 53 °F
Wind: 8 mph from Southwest

Location: Baden Wurttemberg - Neuostheim

Current Time: Mar 28, 2015 at 4:17:41 PM

Latest Report: Mar 28, 2015 at 3:50 PM


Visibility: N/A

Pressure: 30.04 "Hg

Humidity: 41%

Dew point: 34 °F

Location of LudwigshafenLocation

Historic Weather in Ludwigshafen — Graph

°F

Ludwigshafen temperature yesterday

Maximum temperature yesterday: 54 °F (at 1:50 PM)
Minimum temperature yesterday: 41 °F (at 6:50 AM)
Average temperature yesterday: 49 °F

Past Weeks' High & Low Weather Summary

 TemperatureHumidityPressure
High64 °F (Mar 17, 3:50 PM)100% (Mar 21, 9:20 AM)30.30 "Hg (Mar 21, 9:20 AM)
Low30 °F (Mar 24, 5:20 AM)34% (Mar 20, 3:50 PM)29.59 "Hg (Mar 25, 2:50 PM)
Average48 °F62%30.08 "Hg
* Reported Mar 13 2:20 PM — Mar 28 2:50 PM, Ludwigshafen, Weather by CustomWeather, © 2015

Note: Actual official high and low records may vary slightly from our data, if they occured in-between our weather recording intervals... More about our weather records

Advertising

Ludwigshafen weather history for previous 24 hours

 ConditionsComfort  
Time TempWeatherWind HumidityBarometerVisibility
2:50 PM
Sat, Mar 28
57 °FPassing clouds.9 mph39%30.07 "HgN/A
2:20 PM55 °FPassing clouds.10 mph38%30.07 "HgN/A
1:50 PM55 °FPassing clouds.9 mph38%30.09 "HgN/A
1:20 PM55 °FPassing clouds.10 mph38%30.09 "HgN/A
12:50 PM54 °FPassing clouds.9 mph41%30.12 "HgN/A
12:20 PM54 °FSunny.13 mph41%30.12 "Hg10 mi
11:50 AM54 °FPassing clouds.7 mph41%30.15 "HgN/A
11:20 AM52 °FPassing clouds.9 mph44%30.18 "HgN/A
10:50 AM52 °FPassing clouds.9 mph44%30.18 "HgN/A
10:20 AM50 °FPassing clouds.8 mph50%30.21 "HgN/A
9:50 AM48 °FPassing clouds.7 mph58%30.21 "HgN/A
9:20 AM46 °FPassing clouds.6 mph62%30.21 "HgN/A
8:50 AM43 °FSunny.6 mph66%30.21 "Hg10 mi
8:20 AM41 °FSunny.6 mph70%30.21 "Hg10 mi
7:50 AM39 °FPassing clouds.6 mph75%30.21 "HgN/A
7:20 AM39 °FPassing clouds.6 mph75%30.24 "HgN/A
6:50 AM37 °FPassing clouds.5 mph81%30.24 "HgN/A
6:20 AM37 °FSunny.3 mph81%30.24 "Hg10 mi
5:50 AM37 °FClear.6 mph81%30.24 "Hg10 mi
10:20 PM
Fri, Mar 27
48 °FClear.5 mph54%30.21 "Hg10 mi
9:20 PM50 °FClear.7 mph47%30.21 "Hg10 mi
8:50 PM50 °FClear.8 mph47%30.21 "Hg10 mi
8:20 PM50 °FPassing clouds.9 mph47%30.21 "HgN/A
7:50 PM50 °FClear.7 mph47%30.18 "Hg10 mi
7:20 PM50 °FPassing clouds.8 mph47%30.18 "HgN/A
6:50 PM52 °FClear.10 mph41%30.15 "Hg10 mi
6:20 PM52 °FSunny.10 mph41%30.15 "Hg10 mi
5:50 PM52 °FScattered clouds.14 mph38%30.15 "HgN/A
5:20 PM52 °FPartly sunny.14 mph41%30.15 "HgN/A
4:50 PM54 °FPartly sunny.14 mph38%30.12 "HgN/A
4:20 PM52 °FBroken clouds.14 mph41%30.12 "HgN/A
Weather by CustomWeather, © 2015

See weather overviewHow to use our weather pages